Home > Weather > Qikiqtarjuaq > Past weeks

Flag for Canada Past Weather in Qikiqtarjuaq, Nunavut, Canada — Yesterday and Last 2 Weeks

Now
43 °F

Scattered clouds.


Feels Like: 41 °F
Forecast: 41 / 45 °F
Wind: 3 mph from North

Location: Broughton Island Airport

Current Time: Jul 26, 2016 at 12:08:15 PM

Latest Report: Jul 26, 2016 at 11:00 AM


Visibility: 10 mi

Pressure: 30.16 "Hg

Humidity: 81%

Dew Point: 37 °F

Location of QikiqtarjuaqLocation

Past Weather in Qikiqtarjuaq — Graph

°F

Qikiqtarjuaq Temperature Yesterday

Maximum temperature yesterday: 61 °F (at 3:00 PM)
Minimum temperature yesterday: 41 °F (at 4:00 AM)
Average temperature yesterday: 49 °F

High & Low Weather Summary for the Past Weeks

 TemperatureHumidityPressure
High61 °F (Jul 25, 3:00 PM)100% (Jul 11, 11:00 AM)30.17 "Hg (Jul 11, 11:00 AM)
Low28 °F (Jul 14, 12:57 AM)51% (Jul 20, 1:00 PM)29.29 "Hg (Jul 18, 6:00 PM)
Average38 °F92%29.81 "Hg
* Reported Jul 11 11:00 AM — Jul 26 11:00 AM, Qikiqtarjuaq, Weather by CustomWeather, © 2016

Note: Actual official high and low records may vary slightly from our data, if they occured in-between our weather recording intervals... More about our weather records

Advertising

Qikiqtarjuaq Weather History for the Previous 24 Hours

Scroll right to see more
 ConditionsComfort  
Time TempWeatherWind HumidityBarometerVisibility
11:00 AM
Tue, Jul 26
43 °FScattered clouds.3 mph81%30.16 "Hg10 mi
10:00 AM43 °FPassing clouds.2 mph81%30.16 "Hg10 mi
9:00 AM43 °FScattered clouds.3 mph81%30.16 "Hg10 mi
8:00 AM39 °FScattered clouds.2 mph93%30.17 "Hg10 mi
7:00 AM46 °FSunny.6 mph82%30.16 "Hg9 mi
6:00 AM48 °FSunny.8 mph76%30.16 "Hg9 mi
5:00 AM39 °FSunny.12 mph93%30.15 "Hg9 mi
4:00 AM41 °FSunny.15 mph93%30.15 "Hg9 mi
3:00 AM46 °FClear.10 mph82%30.15 "Hg9 mi
2:00 AM41 °FClear.10 mph87%30.15 "Hg9 mi
1:00 AM39 °FClear.14 mph93%30.15 "Hg9 mi
12:00 AM41 °FClear.10 mph87%30.16 "Hg9 mi
11:00 PM
Mon, Jul 25
43 °FSunny.9 mph87%30.17 "Hg9 mi
10:00 PM43 °FSunny.14 mph87%30.16 "Hg9 mi
9:00 PM45 °FSunny.15 mph87%30.16 "Hg9 mi
8:00 PM52 °FSunny.12 mph72%30.16 "Hg9 mi
7:00 PM54 °FSunny.10 mph72%30.16 "Hg9 mi
6:00 PM50 °FSunny.9 mph76%30.15 "Hg9 mi
5:00 PM57 °FSunny.10 mph63%30.14 "Hg9 mi
4:00 PM57 °FBroken clouds.7 mph63%30.13 "Hg10 mi
3:00 PM61 °FScattered clouds.3 mph59%30.12 "Hg10 mi
2:00 PM57 °FScattered clouds.8 mph67%30.11 "Hg10 mi
1:00 PM55 °FScattered clouds.12 mph72%30.11 "Hg10 mi
12:00 PM55 °FScattered clouds.13 mph72%30.11 "Hg10 mi
Weather by CustomWeather, © 2016

See weather overviewHow to use our weather pages